Lid_Strength_Index
1 1 0 0 0 -0 -0 -1 -1 -2 -2 -2 -2 -2 -2 -1 -1 3 7 4 3 0 1 7 8 7 6 7 7 8 14 15 14 12 11 10 11 10 9 9 7 6 6 5 3
1 1 1 0 0 0 0 -0 -1 -1 -2 -2 -2 -2 -1 -1 3 6 3 1 -0 -0 5 8 9 8 9 7 8 11 16 15 12 10 10 9 11 9 9 8 8 7 5 3 3
1 1 1 1 0 0 -0 -0 -0 -1 -1 -2 -2 -2 -1 0 8 9 0 -1 -0 -0 5 6 7 9 10 9 9 10 13 12 11 8 9 9 10 10 10 10 7 7 6 4 4
1 1 1 1 1 0 0 -0 -0 -0 -0 -1 -1 -2 -1 3 13 5 -1 -1 -2 1 4 6 8 11 11 11 9 11 10 10 9 8 9 10 9 10 9 9 7 5 4 4 5
1 1 1 1 1 1 0 1 0 0 0 -0 -1 -2 1 6 8 5 -0 -0 0 1 4 6 9 11 12 11 10 12 10 10 10 8 10 9 10 10 9 8 6 4 4 5 5
1 1 1 1 1 1 0 0 1 0 0 -0 -0 -1 3 9 4 3 4 3 1 2 3 4 7 8 10 10 11 11 10 10 9 9 9 10 12 9 9 7 6 5 5 5 4
1 1 1 1 1 1 1 1 1 0 0 -0 -0 1 4 6 3 4 3 4 3 2 4 4 5 8 8 10 9 10 12 11 10 9 10 9 12 11 9 7 7 6 6 5 4
1 1 1 1 1 1 1 0 1 1 -0 -1 -1 2 7 1 1 3 4 4 4 3 2 2 3 6 7 6 8 11 12 15 12 9 10 11 16 12 9 7 7 7 6 6 5
1 1 1 1 1 1 1 1 0 -1 -2 -2 1 3 7 1 4 2 3 5 5 4 3 2 4 7 8 11 12 12 15 15 13 10 10 11 15 12 10 8 8 7 7 6 5
1 1 1 1 1 1 0 0 -1 -1 -0 -0 1 6 4 6 3 3 3 3 5 6 6 6 7 11 11 12 17 15 15 14 14 12 11 12 12 11 10 9 9 8 8 7 6
1 1 1 1 1 1 2 3 5 5 4 6 6 6 5 2 1 4 3 5 5 7 10 9 12 14 12 11 11 11 12 13 13 11 12 13 12 10 10 11 11 11 9 10 9
2 2 1 1 1 1 2 4 5 4 9 5 4 5 3 3 6 5 3 7 8 11 9 11 13 10 9 10 11 12 13 14 12 12 12 14 14 11 11 11 10 10 11 10 10
2 2 1 1 1 3 4 4 1 3 8 7 5 5 5 4 7 6 5 7 10 11 11 13 12 8 10 11 12 13 14 14 13 13 13 15 16 15 13 13 12 10 9 9 9
2 2 1 1 5 5 5 2 1 2 12 11 8 6 5 4 8 4 4 7 9 11 11 12 10 10 11 12 11 14 11 12 13 15 17 14 19 16 15 14 14 13 11 10 9
2 2 2 1 6 7 4 1 1 3 20 9 8 2 4 7 7 7 4 7 11 11 10 13 12 12 12 12 10 13 10 12 13 15 16 16 17 16 15 15 14 12 12 12 11
3 2 2 5 6 4 2 2 3 13 20 12 8 9 9 8 8 7 7 6 8 11 12 12 10 11 11 11 10 11 13 14 15 15 20 16 17 17 15 14 14 15 15 13 13
2 2 3 4 7 3 3 7 17 17 11 13 12 10 10 11 11 9 10 11 13 16 17 14 13 11 10 12 11 13 14 21 22 21 20 18 17 15 14 13 14 14 14 14 13
2 3 4 3 4 4 6 13 23 18 13 9 10 10 13 11 11 11 11 13 11 14 16 18 19 13 11 12 13 15 15 20 25 24 22 18 19 16 14 13 13 12 13 12 12
3 8 7 5 3 5 11 22 21 16 11 11 11 13 13 11 11 12 12 12 11 13 16 18 18 13 11 11 11 14 16 15 18 24 21 20 17 15 14 13 13 13 12 11 10
8 10 9 5 4 8 16 17 16 9 10 10 14 12 15 13 13 13 13 11 11 10 12 15 17 14 12 10 11 13 12 17 19 25 25 20 19 18 16 14 13 12 12 11 10
7 14 9 5 6 12 20 21 15 10 9 11 13 15 14 13 13 13 13 11 9 10 10 13 14 15 12 13 14 13 16 15 16 17 21 22 19 15 14 13 13 12 11 10 10
10 19 9 4 12 14 15 17 9 10 9 10 10 11 12 12 13 13 13 11 8 8 12 11 14 18 16 13 11 12 13 14 19 19 18 18 19 14 13 12 12 12 11 10 10
13 11 7 6 14 14 17 11 10 10 10 10 11 9 9 12 14 12 11 8 7 9 11 10 15 19 17 15 13 13 12 12 14 15 17 20 19 13 12 12 12 12 11 10 10
12 17 11 8 10 15 19 17 12 9 9 9 10 9 11 12 10 12 12 9 8 8 7 8 12 15 18 16 14 14 13 12 13 17 17 17 16 15 13 12 12 11 11 11 11
12 13 14 14 12 11 12 13 13 15 9 9 12 11 11 15 12 13 11 10 9 8 9 10 16 14 14 13 13 14 13 13 13 14 15 15 15 14 12 12 11 10 10 10 10
13 13 10 18 16 11 11 16 12 12 11 12 14 10 11 15 12 13 11 11 11 9 10 9 14 13 15 13 12 14 13 13 13 13 14 14 14 12 11 11 11 10 10 10 9
9 8 10 12 14 13 12 11 12 10 9 8 9 10 11 10 8 9 8 9 10 10 11 11 13 14 17 13 13 16 14 13 13 13 12 14 11 10 10 10 11 10 10 9 9